EVENES_(CIV/MIL) current weather conditions

sailwx.info

Last reported at 2020-Sep-25 20:30 UTC.
Time now 2020-Sep-25 22:47 UTC

Location: N 68°31' E 016°41'.
View on Google Maps.

See reports from other nearby stations

  
Tides and Currents Weather Stations Pressure Air Temp Water Temp Dewpoint Dewpoint Depression Visibility Wind Speed Wind Dir Waves Ship Positions
date/time (UTC)wind fromknots sea level pressurealtimeterstation pressurevisibilityair tempwater tempwave heightnotes
2020-Sep-25 21:20 5.4 5.0
2020-Sep-25 20:50 5.4 5.0
2020-Sep-25 20:20 5.4 5.0
2020-Sep-25 19:50 5.4 5.0
2020-Sep-25 19:20 5.4 6.0
2020-Sep-25 18:50 5.4 6.0
2020-Sep-25 18:20 5.4 6.0
2020-Sep-25 17:50 5.4 6.0 Light drizzle.
2020-Sep-25 17:20 5.4 7.0
2020-Sep-25 16:50 5.4 7.0
2020-Sep-25 16:20 5.4 7.0
2020-Sep-25 15:50 290 4 5.4 8.0
2020-Sep-25 15:20 030 2 5.4 8.0
2020-Sep-25 14:50 360 6 5.4 8.0 Light rain.
2020-Sep-25 14:20 300 8 5.4 8.0 Drizzle.
2020-Sep-25 13:50 280 6 2.4 9.0 Rain showers.
2020-Sep-25 13:20 190 4 2.7 9.0 Light rain showers.
2020-Sep-25 12:50 160 5 5.4 9.0 Light drizzle.
2020-Sep-25 12:20 5.410.0 Light rain.
2020-Sep-25 11:50 4.3 8.0 Light rain drizzle.
2020-Sep-25 11:20 190 1 4.3 8.0 Light rain.
2020-Sep-25 10:50 5.4 7.0 Light rain.
2020-Sep-25 10:20 5.4 7.0 Light rain.
2020-Sep-25 09:50 5.4 7.0 Showers in the vicinity.
2020-Sep-25 09:20 040 2 5.4 7.0
2020-Sep-25 08:50 050 4 5.4 7.0
2020-Sep-25 08:20 030 5 5.4 7.0
2020-Sep-25 07:50 010 5 5.4 6.0
2020-Sep-25 07:20 360 5 5.4 7.0
2020-Sep-25 06:50 360 6 5.4 7.0
2020-Sep-25 06:20 030 5 5.4 6.0
2020-Sep-25 05:50 020 5 5.4 6.0
2020-Sep-25 05:20 010 6 5.4 6.0
2020-Sep-25 04:50 020 6 5.4 5.0
2020-Sep-25 04:20 030 5 5.4 5.0
2020-Sep-25 03:50 340 8 5.4 5.0
2020-Sep-25 03:20 010 5 5.4 5.0
2020-Sep-25 02:50 020 6 5.4 4.0
2020-Sep-25 02:20 030 5 5.4 5.0
2020-Sep-25 01:50 020 5 5.4 5.0
2020-Sep-25 01:20 020 4 5.4 5.0
2020-Sep-25 00:50 010 4 5.4 4.0
2020-Sep-25 00:20 360 6 5.4 3.0
2020-Sep-24 23:50 5.4 4.0
2020-Sep-24 23:20 010 4 5.4 4.0
2020-Sep-24 22:50 010 4 5.4 4.0
2020-Sep-24 22:20 080 12 5.4 4.0
2020-Sep-24 21:50 090 13 gusting 22 2.5 4.0 Light rain.
2020-Sep-24 21:20 100 12 4.9 4.0 Light rain.
2020-Sep-24 20:20 090 8 5.4 5.0 Light rain.
2020-Sep-24 19:50 090 13 5.4 7.0 Light rain showers.
2020-Sep-24 19:20 080 7 5.4 8.0
2020-Sep-24 18:50 030 4 5.4 8.0
2020-Sep-24 18:20 5.4 7.0
2020-Sep-24 17:50 5.4 8.0
2020-Sep-24 17:20 5.4 6.0
2020-Sep-24 16:50 080 7 5.4 7.0
2020-Sep-24 16:20 020 2 5.4 8.0
2020-Sep-24 15:50 5.4 7.0
2020-Sep-24 15:20 040 4 5.4 7.0
2020-Sep-24 14:50 050 2 5.4 7.0
2020-Sep-24 14:20 5.4 8.0
2020-Sep-24 13:50 100 4 5.4 8.0
2020-Sep-24 13:20 110 4 5.4 8.0
2020-Sep-24 12:50 150 6 5.4 8.0
2020-Sep-24 12:20 160 2 5.4 9.0
2020-Sep-24 11:50 170 4 5.4 9.0
2020-Sep-24 11:20 180 6 5.4 9.0
2020-Sep-24 10:50 180 6 5.4 9.0
2020-Sep-24 10:20 200 5 5.4 9.0
2020-Sep-24 09:50 190 6 5.4 8.0
2020-Sep-24 09:20 150 5 5.4 8.0
2020-Sep-24 08:50 160 2 5.4 7.0
2020-Sep-24 08:20 5.4 6.0
2020-Sep-24 07:50 5.4 5.0
2020-Sep-24 07:20 5.4 4.0
2020-Sep-24 06:50 5.4 3.0
2020-Sep-24 06:20 010 2 5.4 3.0
2020-Sep-24 05:50 5.4 3.0
2020-Sep-24 05:20 330 2 5.4 4.0
2020-Sep-24 04:55 360 2 5.4 4.0
2020-Sep-24 04:20 010 4 5.4 4.0
2020-Sep-24 03:50 010 4 5.4 4.0
2020-Sep-24 03:20 340 5 5.4 5.0
2020-Sep-24 02:50 210 2 5.4 5.0
2020-Sep-24 02:20 250 7 5.4 5.0
2020-Sep-24 01:50 230 4 5.4 6.0
2020-Sep-24 01:20 260 6 5.4 6.0
2020-Sep-24 00:50 250 12 5.4 6.0 Light drizzle.
2020-Sep-24 00:20 240 6 5.4 6.0 Light drizzle.
2020-Sep-23 23:50 260 6 5.4 6.0 Light drizzle.
2020-Sep-23 23:20 240 6 5.4 7.0
2020-Sep-23 22:50 240 11 5.4 7.0
2020-Sep-23 22:20 230 11 5.4 7.0